C/2013 G8 ( PanSTARRS )

Japanese version
Home page
Updated on August 29, 2015

---------------------------------------------------------------------

* Profile

Discovery Date April 14, 2013
Magnitude 20.1 mag
Discoverer Pan-STARRS 1 telescope (Haleakala)

* Pictures

* Orbital Elements

Epoch 2013 Nov. 4.0 TT = JDT 2456600.5
T 2013 Nov. 14.97253 TT                                 MPCW
q   5.1411812            (2000.0)            P               Q
z  +0.0003260      Peri.   80.16839     +0.68103101     +0.60973146
 +/-0.0000011      Node   241.02102     -0.70680892     +0.69208530
e   0.9983241      Incl.   27.61496     +0.19135807     +0.38632304
From 144 observations 2013 Apr. 14-2015 Aug. 20, mean residual 0".5.

* Magnitudes Graph

        m1 = 8.0 + 5 log d + 10.0 log r

---------------------------------------------------------------------

The orbital elements are published on M.P.E.C. 2015-Q71.
The magnitudes graphs are made with Comet for Windows.

---------------------------------------------------------------------

Copyright(C) Seiichi Yoshida (comet@aerith.net). All rights reserved.